Location: Walnut Street Observatory
(41.0583°N, 76.2295°W)
Time: 10:29:48
(UTC-04:00)

Daily predictions for brighter satellites

Satellite Brightness Start Highest point End
(mag) Time Altitude Azimuth Time Altitude Azimuth Time Altitude Azimuth
Cosmos 1674 2.9 21:07:46 10° S 21:11:30 54° E 21:15:18 10° NNE
Cosmos 773 Rocket 4.1 21:06:59 10° NNW 21:12:12 89° WSW 21:17:27 10° SSE
Cosmos 2151 3.5 21:09:36 10° SSE 21:13:31 40° E 21:17:28 10° NNE
deb Chang Zheng 4 3.7 21:11:27 10° NNE 21:15:44 58° ESE 21:20:01 10° S
NOSS 3-1 (A) 4.1 21:11:19 10° S 21:16:18 30° ESE 21:21:40 10° NE
Cosmos 2227 Rocket 4.0 21:15:57 10° ESE 21:17:06 11° E 21:18:14 10° E
YAOGAN 6 4.3 21:16:14 10° ESE 21:18:53 19° ENE 21:21:31 10° NNE
Cosmos 1515 Rocket 4.1 21:18:42 10° NNW 21:23:05 64° W 21:27:26 10° S
Cosmos 2058 3.8 21:19:58 10° SSE 21:23:34 30° E 21:27:11 10° NNE
Cosmos 1300 4.0 21:22:22 10° NNE 21:25:37 25° ENE 21:28:45 10° SE
DELTA 2 R/B(2) 3.4 21:25:46 10° WSW 21:27:17 38° SSE 21:29:17 10° E
Cosmos 1833 4.5 21:22:16 10° SSW 21:27:58 78° WNW 21:33:41 10° NNE
Sich 1 4.3 21:26:22 10° SE 21:29:51 23° E 21:33:20 10° NE
Cosmos 2333 Rocket 3.8 21:28:04 10° N 21:32:26 22° NE 21:36:47 10° E
Meteor 2-20 Rocket 4.5 21:26:41 10° S 21:32:50 82° E 21:39:00 10° N
Cosmos 1633 Rocket 4.3 21:31:20 10° SE 21:34:50 24° E 21:38:22 10° NE
Cosmos 1151 Rocket 3.1 21:31:32 10° N 21:35:52 81° W 21:40:12 10° S
MetOp-A 4.5 21:31:09 10° SE 21:36:18 52° ENE 21:41:29 10° N
Cosmos 1437 2.7 21:33:21 10° S 21:36:38 82° E 21:39:55 10° NNE
USA 245 4.1 21:37:38 12° ESE 21:38:44 15° ENE 21:40:14 10° NNE
ATLAS 2AS CENTAUR R/B 4.1 21:33:41 10° SSE 21:38:53 21° ESE 21:44:21 10° ENE
Cosmos 2297 Rocket 3.9 21:42:05 11° ESE 21:43:50 13° E 21:46:14 10° ENE
COSMOS 2428 2.9 21:39:05 10° NNW 21:44:43 62° ENE 21:49:36 14° SE
Cosmos 1437 Rocket 4.1 21:41:17 10° NNW 21:44:49 36° W 21:48:23 10° SSW
ARGOS 4.0 21:40:45 12° SE 21:45:11 37° ENE 21:50:06 10° N
ERS-1 Rocket 3.9 21:41:43 10° S 21:46:34 48° W 21:51:27 10° NNW
Cosmos 1455 4.5 21:46:36 10° NE 21:47:49 11° ENE 21:49:01 10° E
Envisat 3.1 21:43:07 10° S 21:48:12 79° WSW 21:53:18 10° NNW
Cosmos 2219 Rocket 3.1 21:43:39 10° N 21:48:44 34° ENE 21:53:00 14° ESE
Cosmos 1939 Rocket 3.4 21:45:33 10° S 21:49:23 55° W 21:53:14 10° NNW
Cosmos 2266 Rocket 4.3 21:43:08 10° SSW 21:49:24 71° W 21:55:36 10° N
Terra 3.7 21:47:50 10° ESE 21:50:50 17° ENE 21:53:50 10° NNE
Cosmos 1805 Rocket 3.6 21:46:31 10° S 21:50:54 63° E 21:55:18 10° NNE
ATLAS 3B R/B 4.4 21:45:37 10° NNW 21:51:08 23° NNE 21:56:23 10° E
ERBS 3.7 21:49:50 15° SSE 21:51:24 19° SE 21:53:59 10° ENE
Cosmos 2315 Rocket 4.0 21:52:50 10° N 21:59:04 89° ENE 22:05:16 10° S
Cosmos 1726 2.4 21:57:40 10° N 22:01:23 52° E 22:03:46 20° SSE
NOSS 3-1 (C) 3.4 21:56:12 10° SSW 22:02:03 84° ESE 22:08:33 10° NE
SL-23 DEB 4.1 21:57:48 10° WNW 22:02:51 62° SW 22:05:00 22° SSE
CZ-3A R/B 4.5 21:39:19 10° WSW 22:03:34 30° SSW 22:07:48 17° SSE
Cosmos 2112 Rocket 4.5 21:58:31 10° NNW 22:03:40 59° WSW 22:08:34 11° S
SL-08 RB Rocket 4.3 22:00:48 18° SE 22:03:40 40° ENE 22:07:53 10° N
CZ-4 SHROUD 3.6 22:02:06 15° S 22:04:35 61° W 22:07:41 10° NNW
OTV 4 2.3 22:02:58 10° SSW 22:04:07 16° S 22:04:07 16° S
OAO 2 Rocket 4.0 22:00:32 10° SW 22:05:21 36° SSE 22:09:07 15° ESE
Cosmos 2237 4.3 22:00:32 10° NNW 22:06:18 84° WSW 22:10:48 17° SSE
Cosmos 1937 Rocket 3.8 22:02:33 10° S 22:07:29 46° ESE 22:12:27 10° NNE
H-2A R/B 3.5 22:03:29 10° SSW 22:07:40 36° W 22:11:51 10° NNW
Cosmos 220 Rocket 4.5 22:04:31 15° SSE 22:07:43 41° ESE 22:11:53 10° NNE
Meteor 2-11 Rocket 4.4 22:02:49 10° N 22:09:00 77° E 22:14:03 16° SSE
Cosmos 1707 Rocket 3.5 22:05:32 10° N 22:09:54 88° ENE 22:13:15 17° S
Cosmos 1666 Rocket 3.5 22:09:24 11° S 22:13:37 83° E 22:18:04 10° N
Cosmos 2298 Rocket 4.0 22:08:37 10° SSW 22:13:56 88° ESE 22:19:18 10° NNE
Cosmos 2219 3.8 22:10:20 10° SW 22:16:01 60° WNW 22:21:42 10° NNE
Tiangong 1 0.9 22:13:19 10° WSW 22:16:25 79° SSE 22:18:55 15° ENE
Cosmos 990 Rocket 4.5 22:13:36 19° SSE 22:16:48 39° ESE 22:21:33 10° NE
CZ-4 R/B 3.9 22:13:35 10° NNE 22:18:28 60° ESE 22:22:06 17° S
Nadezhda 1 Rocket 4.5 22:13:07 10° N 22:18:55 43° ENE 22:22:31 22° SE
Meteor 1-4 Rocket 2.7 22:15:45 10° N 22:19:28 62° E 22:21:10 29° SSE
Cosmos 2237 Rocket 2.9 22:16:28 10° N 22:21:53 42° ENE 22:25:15 21° ESE
CZ-4C R/B 3.7 22:21:28 28° ESE 22:22:41 39° ENE 22:25:57 10° N
Cosmos 2333 4.3 22:17:59 10° NNW 22:23:44 82° WSW 22:27:36 22° SSE
Cosmos 1271 Rocket 2.7 22:22:56 10° N 22:26:48 71° E 22:28:33 31° SSE
Cosmos 2082 4.1 22:23:04 19° SSE 22:26:49 43° ESE 22:32:12 10° NE
Cosmos 1470 Rocket 3.9 22:25:29 28° SE 22:27:18 44° E 22:31:25 10° NNE
Cosmos 1933 Rocket 4.0 22:26:29 27° SSE 22:28:26 44° E 22:32:40 10° NNE
SL-08 R/B 4.5 22:23:34 15° S 22:28:47 73° E 22:35:04 10° NNE
CZ-4B R/B 3.7 22:25:15 10° N 22:30:32 77° WNW 22:35:41 10° SSW
Cosmos 1745 Rocket 4.0 22:27:24 18° S 22:32:02 66° E 22:38:09 10° NNE
Cosmos 2360 Rocket 3.9 22:27:34 10° NW 22:32:08 26° WSW 22:36:41 10° SSW
NOSS 0 Rocket 4.0 22:27:37 10° NNW 22:33:47 70° ENE 22:37:22 26° SE
Cosmos 1703 3.1 22:32:28 27° S 22:34:31 79° E 22:38:26 10° N
Iridium 2 3.7 22:33:22 33° SSE 22:34:54 65° E 22:38:44 10° N
SL-14 R/B 4.0 22:31:35 11° SSW 22:35:14 53° W 22:39:11 10° N
NOAA 11 4.2 22:32:40 22° S 22:36:14 84° WSW 22:41:44 10° NNW
H-2A R/B 2.4 22:36:57 28° SE 22:39:43 58° ENE 22:45:03 10° N
Cosmos 1626 2.5 22:41:26 40° SE 22:42:09 46° E 22:45:46 10° NNE
Delta 2 Rocket 4.3 22:46:30 10° WSW 22:48:40 24° SW 22:48:40 24° SW
Cosmos 1898 Rocket 4.4 22:47:08 10° SW 22:52:08 49° WNW 22:57:13 10° N
SPOT 1/Viking Rocket 4.3 22:48:49 19° SSW 22:52:16 46° W 22:57:14 10° NNW
YAOGAN 6 4.5 22:50:10 15° SW 22:52:19 25° W 22:55:21 10° NW
Cosmos 1386 Rocket 4.4 22:51:00 27° S 22:54:25 72° E 23:00:25 10° NNE
Lacrosse 4 Rocket 2.9 22:53:02 10° N 22:56:54 28° NE 22:58:32 22° E
Cosmos 1125 Rocket 4.0 22:56:55 35° SE 22:58:08 40° ESE 23:03:04 10° NE
Cosmos 2227 Rocket 2.1 22:55:43 17° SSW 23:00:12 86° ESE 23:05:55 10° NNE
NOSS 3-1 (A) 4.4 23:01:05 10° WSW 23:06:50 48° NW 23:13:13 10° NNE
Cosmos 1862 Rocket 3.5 23:04:30 10° N 23:08:51 80° W 23:10:02 47° S
CARTOSAT-1 3.5 23:08:07 46° S 23:09:21 79° WSW 23:13:41 10° NNW
Cosmos 2181 Rocket 4.4 23:03:21 10° N 23:09:34 50° ENE 23:12:03 34° SE
Spot 2 4.3 23:05:07 10° NNE 23:10:13 71° ESE 23:11:50 42° S
COSMOS 2455 3.2 23:05:31 10° NNW 23:11:26 54° ENE 23:14:03 32° ESE
Landsat 7 4.3 23:10:19 32° SSW 23:12:15 55° W 23:16:57 10° NNW
SAR-Lupe-2 3.4 23:15:11 74° SSW 23:15:26 81° WSW 23:19:02 10° NNW
SL-16 R/B 2.7 23:10:35 10° NNW 23:16:07 51° ENE 23:18:12 34° ESE
Cosmos 1933 3.7 23:12:56 10° N 23:16:54 49° E 23:17:12 48° E
Cosmos 2333 Rocket 2.4 23:11:29 10° NNW 23:17:10 63° WSW 23:19:24 36° S
Cosmos 1346 4.4 23:20:05 32° W 23:20:26 33° WNW 23:23:14 10° N
Cosmos 44 Rocket 4.1 23:23:53 37° ESE 23:23:53 37° ESE 23:28:24 10° NE
FALCON 9 R/B 3.6 23:00:37 10° W 23:23:39 60° SSW 23:27:16 32° SE
Cosmos 1455 2.8 23:20:09 10° NNW 23:23:50 47° W 23:24:28 42° SW
BREEZE-M DEB (TANK) 2.6 23:23:17 10° NW 23:25:19 62° N 23:25:19 62° N
Cosmos 2297 Rocket 2.2 23:23:49 27° SSW 23:27:04 83° WNW 23:32:45 10° NNE
ERBS 3.8 23:24:43 10° WSW 23:28:01 39° NW 23:31:20 10° NNE
Terra 2.2 23:26:42 39° SSW 23:28:07 54° W 23:32:48 10° NNW
ATLAS 2AS CENTAUR R/B 3.0 23:21:22 10° SW 23:28:53 84° NW 23:37:00 10° NNE
DMSP B5D2-2 4.4 23:26:18 10° N 23:31:29 63° WNW 23:34:05 29° SW
Cosmos 2219 Rocket 3.3 23:27:38 10° NW 23:32:38 34° WSW 23:34:43 26° SW
Spot 4 4.1 23:34:28 45° SSW 23:35:42 60° W 23:40:31 10° NNW
Cosmos 1869 Rocket 3.6 23:36:29 62° ESE 23:36:44 63° E 23:41:10 10° NNE
IGS 5A 4.2 23:36:25 39° SW 23:37:08 42° W 23:41:07 10° NNW
Aureole 2 Rocket 4.4 23:35:57 10° NNE 23:38:01 20° NE 23:38:01 20° NE
ATLAS 3B R/B 2.6 23:35:52 10° NW 23:42:55 87° ENE 23:45:16 44° SE
Cosmos 1900 4.2 23:40:43 10° NNW 23:45:42 80° WSW 23:46:21 66° S
COS B Rocket 3.3 23:45:46 10° N 23:49:36 85° NE 23:49:36 85° NE
OAO 2 Rocket 4.3 23:44:43 10° WSW 23:48:06 33° SW 23:48:06 33° SW
ALOS 2 3.8 23:52:44 30° ENE 23:53:05 30° ENE 23:56:56 10° N
Tiangong 1 3.5 23:50:03 10° W 23:51:01 18° WNW 23:51:01 18° WNW
